Wetbulb
46.29 42.98 39.77 41.76 42.75 42.84 41.15 38.88 36.93 38.86 42.72 41.93 39.75 40.70 43.00 44.30 45.61 47.02 47.90 47.70 46.88 46.96 47.57 48.44 48.60 48.23 49.42 48.93 50.26 50.36 54.00 57.82 57.00 55.84 54.74 54.29 54.03 55.69 56.28 57.76 58.09 60.19 61.98 61.33
41.61 39.34 44.08 45.65 45.16 43.52 40.91 37.93 36.80 40.20 44.19 42.19 39.93 39.38 40.47 44.11 45.86 46.59 46.15 45.07 44.93 45.87 46.59 47.37 46.50 45.68 46.08 46.97 47.73 49.21 50.29 57.03 55.94 55.52 54.84 54.11 54.03 54.58 55.40 55.73 56.37 57.77 58.46 60.07
39.23 43.62 47.11 44.76 41.61 40.68 39.39 38.26 38.57 39.04 41.92 39.54 37.83 35.85 41.86 47.02 47.38 46.84 46.12 46.09 46.03 44.93 44.52 45.67 46.14 44.22 44.13 44.62 45.22 47.80 47.90 56.08 55.29 54.84 54.17 53.43 52.82 52.80 52.66 53.63 54.13 53.74 57.66 58.34
42.16 46.61 44.70 42.33 41.10 40.76 36.25 41.97 41.81 40.91 37.82 31.74 36.19 28.04 37.38 43.17 43.07 43.96 43.76 43.47 43.77 44.05 44.40 44.58 44.00 43.52 43.51 44.09 45.47 46.27 47.11 55.23 55.24 53.95 52.38 51.11 50.03 49.53 51.46 52.69 52.27 52.86 54.26 55.39
40.10 43.63 42.44 41.30 41.51 41.72 39.17 41.37 40.14 38.68 34.71 31.28 34.13 29.74 34.12 42.37 40.70 41.81 43.28 43.88 42.44 42.78 42.92 43.11 43.58 44.05 43.48 43.26 43.20 44.02 45.80 54.54 54.26 52.52 51.56 50.46 49.56 49.91 50.36 50.60 50.43 51.11 51.65 52.55
41.86 45.55 44.24 42.38 42.55 40.58 40.84 37.98 36.34 34.92 32.34 27.79 32.43 29.89 33.10 36.14 40.27 42.48 44.15 44.27 42.22 41.27 40.94 42.71 43.84 44.83 42.94 43.33 43.69 44.39 46.38 50.56 52.47 52.26 51.44 50.15 49.65 49.35 47.50 47.64 47.19 47.72 48.38 49.87
39.16 41.52 42.88 42.32 37.57 38.82 36.62 32.05 25.90 27.08 26.05 26.28 34.89 31.28 34.71 39.49 40.89 42.26 41.09 40.52 41.07 40.54 40.57 40.92 41.67 40.82 42.42 42.45 43.61 47.68 48.37 49.71 50.78 49.81 49.25 49.08 48.78 48.80 46.66 45.14 44.74 44.54 43.89 44.03
31.03 33.36 37.49 40.74 37.27 34.15 33.63 32.26 26.80 23.11 23.05 25.24 33.39 28.66 35.16 39.70 41.13 41.32 41.22 40.57 40.75 40.23 40.80 40.37 40.64 41.03 41.84 43.70 45.69 46.48 47.42 47.97 48.02 47.60 47.16 47.21 48.63 46.84 45.25 44.07 43.20 42.75 42.48 43.09
30.25 32.79 39.33 40.41 39.72 37.31 35.07 31.20 35.29 30.54 29.06 25.12 27.73 31.95 39.88 39.69 39.02 39.84 39.47 39.73 37.23 38.71 39.33 40.12 40.46 41.57 41.82 43.96 45.81 44.88 43.87 45.94 47.00 46.08 46.11 46.65 45.36 44.06 42.48 41.74 41.45 41.30 40.95 41.82
34.80 28.79 36.95 40.38 39.86 39.07 35.60 37.23 29.41 28.59 22.66 21.69 25.96 26.69 29.45 34.56 36.01 37.60 37.06 37.77 39.13 40.19 40.02 40.29 41.11 42.21 42.04 44.33 45.21 43.87 43.06 44.37 45.78 45.07 43.87 43.94 43.03 41.74 40.36 39.59 37.98 37.64 37.81 38.14
35.13 31.84 32.76 36.00 34.59 32.43 33.59 32.16 32.87 32.12 28.55 22.58 20.14 24.18 35.46 34.56 35.35 34.70 36.49 38.51 39.76 40.75 39.36 40.35 40.90 41.15 42.07 43.75 43.42 42.96 43.57 43.50 43.84 43.63 42.87 41.67 40.41 39.20 37.76 36.42 35.40 34.30 35.21 35.02
35.21 31.89 25.78 30.53 37.16 37.96 36.01 32.79 32.34 25.13 25.14 26.74 24.60 24.77 36.35 35.50 35.84 37.13 37.09 38.96 40.63 41.54 41.35 41.62 41.64 40.76 42.57 43.02 42.88 41.84 41.86 41.97 43.72 42.65 40.91 39.39 37.40 34.84 33.29 33.65 33.24 33.51 32.93 33.92
33.55 28.51 23.36 29.07 33.13 36.21 33.49 34.34 34.06 32.38 28.73 24.36 19.24 22.46 37.05 37.10 36.62 37.49 36.96 38.30 39.58 40.57 39.75 40.66 42.63 42.43 42.63 42.49 41.74 40.51 40.36 40.56 40.98 40.04 38.16 36.91 33.74 32.56 32.00 31.77 31.91 32.19 32.13 32.15
37.59 29.96 26.74 23.28 27.55 31.59 29.21 31.90 32.56 29.92 23.95 24.28 24.67 27.82 31.77 34.03 34.57 36.12 36.55 37.44 37.86 37.91 40.12 41.37 40.61 42.63 42.28 42.25 40.64 39.59 39.28 40.13 38.87 37.47 35.87 33.59 32.62 32.50 32.21 32.40 31.06 30.63 30.96 30.47
34.41 27.15 30.49 32.31 33.08 32.83 31.59 31.06 30.81 28.75 29.67 24.87 27.36 27.68 31.54 33.55 33.88 34.89 36.07 35.96 35.61 37.05 40.33 40.34 40.56 40.47 42.41 40.70 39.26 38.21 38.22 37.73 37.09 35.48 34.31 33.36 32.38 32.77 31.98 31.59 31.40 30.72 29.87 29.77
34.58 26.81 29.15 27.98 32.18 31.84 29.25 30.90 30.96 31.28 30.94 30.54 29.99 28.90 34.24 34.99 35.39 33.65 33.04 33.52 34.16 35.07 35.95 37.02 39.32 41.06 40.35 38.39 36.91 35.94 35.42 35.96 36.09 33.67 33.10 32.68 31.95 31.06 30.70 30.96 30.08 29.80 29.97 28.80
31.85 28.96 25.44 23.10 29.78 28.40 23.93 30.25 31.27 31.66 31.73 31.39 26.51 29.97 33.10 31.48 31.10 30.70 31.50 32.49 31.75 32.63 33.72 34.70 37.83 39.84 39.30 36.95 35.88 34.59 34.23 34.59 33.47 32.98 32.04 31.55 31.31 30.75 31.19 32.36 30.92 29.13 27.66 27.49
31.16 29.17 26.59 22.11 24.24 9.29 29.46 35.61 35.26 32.46 31.79 31.64 30.89 31.26 31.49 30.11 31.11 32.61 32.79 30.83 31.80 34.10 34.60 35.90 37.46 40.67 38.34 36.64 34.91 33.45 33.18 31.84 31.71 31.28 31.05 31.32 31.23 31.00 31.38 31.01 30.42 29.39 28.20 25.62
34.34 29.33 22.38 14.74 21.03 24.65 30.51 33.56 32.32 30.29 27.52 31.20 29.41 30.06 29.76 30.89 31.46 29.32 32.78 34.00 35.20 34.92 35.53 35.89 39.75 38.08 36.46 34.74 33.46 31.84 30.54 29.86 29.78 29.57 30.13 30.46 30.46 29.08 28.77 28.16 29.02 28.66 26.76 24.73
34.50 32.63 25.61 16.99 10.97 13.48 28.57 35.01 37.68 35.56 24.10 31.15 30.05 28.67 28.97 30.36 21.48 24.72 31.81 35.11 36.19 36.53 35.61 35.64 35.67 35.13 33.44 32.59 31.77 30.12 29.67 29.85 28.90 28.39 27.62 27.91 26.87 25.72 24.70 25.01 26.77 26.29 25.12 23.90
27.90 27.47 25.41 23.25 15.14 23.86 34.43 35.77 37.36 24.54 24.78 30.75 30.07 29.61 29.57 27.73 28.00 31.05 34.70 35.67 35.95 35.54 35.31 34.95 34.01 32.59 31.49 31.25 30.30 28.30 28.17 27.45 28.04 26.84 25.56 24.71 24.75 24.00 23.88 23.96 23.59 23.49 23.54 22.46
27.67 26.04 24.10 24.57 21.64 18.91 35.98 33.72 28.37 29.81 31.40 30.44 29.74 31.26 30.78 31.49 31.89 33.87 35.70 35.13 34.48 33.83 33.23 33.38 31.69 30.43 30.55 30.54 30.06 28.40 27.34 28.04 26.47 25.40 24.02 22.89 22.74 23.33 22.97 21.31 21.20 21.28 20.81 20.63
27.15 29.86 26.73 29.38 27.07 32.46 34.00 32.36 32.71 32.14 30.15 29.58 29.70 31.59 33.10 32.55 30.79 35.51 35.25 33.80 32.33 31.73 30.11 30.49 28.62 27.88 28.23 28.36 27.28 25.59 25.45 25.78 24.40 23.39 21.34 22.54 23.93 23.19 22.52 20.60 19.95 19.51 19.95 20.01
33.40 35.34 30.64 29.41 31.80 31.41 32.30 33.04 32.49 31.68 30.32 31.47 31.72 33.49 33.09 32.02 34.37 35.33 32.96 31.89 31.41 31.03 30.11 29.66 28.40 27.19 27.59 29.46 28.59 25.60 23.60 22.42 20.08 18.98 21.01 24.25 23.80 22.49 21.73 21.84 21.64 20.16 19.50 19.46
32.20 33.23 30.74 29.55 32.56 31.63 31.39 31.11 31.23 31.36 32.42 31.47 33.75 33.89 33.98 34.17 33.16 32.11 31.08 29.92 29.58 29.19 28.82 28.11 26.57 25.96 24.83 24.40 23.14 24.63 24.19 24.89 24.64 24.61 24.92 24.39 24.30 23.27 22.10 22.36 21.84 20.38 21.30 21.74
32.28 30.38 27.55 26.29 32.85 29.51 29.32 30.78 31.76 30.74 30.51 31.17 32.09 32.68 33.26 33.11 31.14 30.11 28.81 29.12 27.71 26.22 26.30 25.41 24.59 22.46 21.09 21.05 21.05 22.85 25.40 25.22 23.90 23.34 22.77 22.43 22.25 22.22 22.61 22.56 21.30 24.28 22.65 22.98
MSLP
1012.52 1013.29 1013.72 1013.86 1013.89 1014.05 1014.31 1014.64 1014.53 1013.89 1013.66 1013.70 1013.76 1013.21 1012.45 1011.80 1012.32 1013.45 1014.41 1014.96 1015.40 1015.61 1015.92 1015.62 1015.25 1014.96 1014.69 1014.28 1013.80 1013.66 1013.40 1013.63 1013.44 1012.90 1012.57 1012.22 1011.95 1011.17 1010.55 1010.69 1010.94 1010.37 1009.46 1008.62
1013.58 1013.81 1013.77 1013.79 1013.99 1014.38 1014.78 1015.01 1015.15 1014.51 1014.07 1014.61 1014.34 1013.97 1013.87 1013.53 1014.56 1015.13 1015.73 1016.21 1016.50 1016.54 1016.25 1015.86 1015.79 1015.64 1015.43 1015.09 1014.72 1014.29 1014.01 1013.99 1014.03 1013.83 1013.52 1013.23 1012.80 1012.00 1011.32 1010.55 1010.17 1009.83 1009.45 1008.88
1014.20 1014.14 1013.78 1014.22 1014.73 1015.02 1015.25 1015.60 1015.73 1015.82 1014.94 1015.50 1015.50 1015.11 1015.55 1015.78 1016.00 1016.24 1016.74 1017.03 1016.98 1017.01 1016.96 1016.95 1016.63 1016.37 1016.04 1015.59 1015.02 1014.50 1014.40 1014.63 1014.78 1014.45 1013.87 1013.26 1012.64 1012.20 1011.53 1010.62 1009.88 1009.75 1009.21 1008.77
1014.63 1014.42 1014.29 1014.76 1015.32 1015.62 1015.72 1015.79 1015.99 1016.15 1016.39 1016.90 1016.84 1017.81 1017.42 1017.80 1017.51 1017.49 1017.75 1017.75 1017.93 1017.64 1017.35 1017.11 1016.76 1016.16 1016.01 1015.88 1015.52 1015.40 1015.41 1015.36 1015.07 1014.70 1014.40 1014.12 1013.51 1012.84 1012.42 1011.69 1011.02 1010.08 1009.90 1009.31
1015.26 1014.76 1014.88 1015.52 1016.15 1016.01 1016.30 1016.08 1016.28 1016.50 1017.14 1017.58 1017.87 1018.27 1019.23 1018.40 1018.49 1018.48 1018.44 1018.52 1018.46 1018.29 1018.12 1017.77 1017.40 1017.19 1016.74 1016.79 1016.67 1016.35 1016.13 1015.87 1015.64 1015.22 1014.91 1014.53 1013.99 1013.42 1012.76 1012.22 1011.47 1010.84 1010.31 1010.11
1015.90 1015.32 1015.69 1015.98 1016.36 1016.53 1016.63 1016.53 1016.67 1017.16 1017.93 1018.78 1018.85 1019.02 1020.47 1019.56 1019.36 1018.94 1019.12 1018.86 1018.58 1018.21 1018.00 1017.80 1017.56 1017.22 1017.68 1017.51 1017.32 1017.13 1016.92 1016.58 1016.14 1015.89 1015.29 1014.90 1014.41 1013.92 1013.29 1012.67 1012.10 1011.57 1011.02 1010.44
1017.32 1016.96 1016.62 1016.36 1016.80 1017.06 1017.49 1018.12 1018.82 1019.08 1019.63 1019.92 1018.89 1019.38 1020.11 1019.93 1019.57 1019.48 1019.53 1019.36 1018.93 1018.54 1018.08 1017.87 1017.73 1017.90 1018.07 1017.98 1017.87 1017.65 1017.46 1017.05 1016.73 1016.33 1015.82 1015.40 1014.81 1014.62 1014.27 1013.82 1013.03 1012.34 1011.95 1011.10
1019.47 1018.58 1017.99 1017.34 1017.68 1018.16 1018.57 1019.10 1020.28 1020.98 1021.35 1021.01 1019.64 1020.04 1020.22 1020.00 1019.83 1019.73 1019.71 1019.62 1019.39 1019.39 1018.92 1018.59 1018.19 1017.99 1017.86 1017.91 1018.12 1018.01 1017.67 1017.45 1017.18 1016.85 1016.49 1016.06 1015.72 1015.47 1015.05 1014.64 1013.82 1013.37 1013.11 1012.30
1020.97 1019.98 1018.92 1018.38 1018.17 1018.51 1019.02 1019.70 1020.23 1021.27 1021.88 1021.91 1021.01 1020.46 1020.19 1019.59 1019.99 1020.11 1020.01 1019.98 1019.99 1019.69 1019.17 1018.77 1018.35 1017.93 1018.14 1018.30 1018.32 1018.25 1018.00 1017.87 1017.53 1017.39 1017.14 1016.65 1016.56 1016.44 1015.81 1015.36 1014.60 1014.35 1013.73 1013.33
1022.01 1021.39 1020.38 1019.31 1018.85 1019.09 1019.35 1020.10 1020.95 1022.20 1023.34 1023.35 1022.11 1021.54 1020.93 1021.07 1020.79 1020.64 1021.10 1021.31 1020.81 1019.99 1019.28 1018.80 1018.71 1018.64 1018.67 1018.62 1018.72 1018.81 1018.67 1018.48 1018.27 1017.81 1017.70 1017.63 1017.38 1017.08 1016.49 1015.98 1015.55 1015.51 1014.62 1014.41
1022.66 1022.68 1021.84 1020.79 1020.40 1020.57 1020.54 1021.38 1022.20 1023.07 1024.28 1024.73 1023.99 1022.47 1021.61 1021.83 1022.72 1022.85 1022.69 1022.33 1021.55 1020.37 1019.61 1019.87 1019.76 1019.69 1019.56 1019.75 1019.62 1019.44 1019.04 1018.85 1018.42 1018.39 1018.47 1018.58 1018.24 1017.63 1017.41 1017.08 1016.90 1016.68 1015.80 1015.48
1024.00 1023.94 1023.63 1022.69 1021.55 1021.27 1021.66 1022.92 1023.53 1024.67 1025.45 1025.60 1025.50 1022.59 1022.56 1023.28 1023.54 1023.46 1023.39 1023.15 1022.65 1022.15 1021.87 1021.23 1020.66 1020.35 1020.45 1020.64 1020.40 1020.21 1019.80 1019.50 1019.22 1019.28 1019.34 1019.53 1019.42 1018.86 1018.37 1018.31 1017.62 1017.56 1016.87 1016.56
1024.76 1025.12 1024.93 1023.69 1022.94 1022.69 1023.16 1023.81 1024.42 1025.14 1025.81 1025.97 1026.33 1024.08 1023.12 1023.85 1024.11 1024.28 1024.11 1023.56 1023.23 1022.69 1022.22 1021.62 1021.03 1020.66 1020.64 1020.84 1021.18 1020.74 1020.64 1020.14 1020.34 1020.25 1020.22 1020.37 1020.33 1019.97 1019.49 1019.05 1018.48 1018.66 1018.16 1017.20
1024.92 1025.73 1025.72 1025.18 1024.94 1025.01 1024.72 1024.57 1024.86 1025.43 1026.13 1025.95 1025.96 1024.66 1025.31 1025.52 1025.25 1024.91 1024.55 1024.19 1023.65 1023.13 1022.18 1021.99 1021.75 1021.38 1021.33 1021.31 1022.43 1021.63 1021.47 1021.28 1021.27 1021.20 1021.17 1021.19 1021.11 1020.97 1020.54 1019.79 1019.54 1019.41 1019.13 1018.48
1025.70 1026.39 1026.47 1026.12 1025.80 1025.65 1025.50 1025.48 1025.45 1025.66 1025.65 1026.24 1025.88 1026.12 1026.67 1026.65 1026.26 1025.89 1025.38 1024.59 1023.66 1022.88 1022.57 1022.46 1022.25 1022.13 1021.84 1022.02 1022.63 1022.58 1022.46 1022.40 1022.13 1021.99 1022.09 1021.96 1021.90 1021.82 1021.21 1020.53 1020.46 1020.68 1020.21 1019.69
1026.13 1026.86 1027.11 1027.09 1026.61 1026.32 1026.04 1025.77 1025.37 1025.32 1025.78 1026.32 1026.58 1026.67 1027.01 1027.26 1026.91 1026.57 1026.17 1025.32 1024.50 1024.17 1023.60 1023.04 1022.82 1022.30 1022.06 1022.36 1022.46 1023.29 1023.45 1023.08 1022.95 1022.75 1022.90 1022.78 1022.53 1022.39 1021.86 1021.42 1021.28 1021.29 1021.09 1020.79
1026.91 1027.72 1028.36 1028.24 1027.74 1027.04 1026.13 1025.43 1025.41 1025.70 1026.90 1027.51 1028.31 1028.47 1028.13 1027.76 1027.66 1027.58 1026.48 1026.14 1025.73 1024.97 1024.24 1023.47 1022.73 1022.63 1022.97 1022.94 1023.44 1023.64 1024.01 1023.88 1023.76 1023.44 1023.69 1023.59 1023.25 1022.87 1022.46 1022.05 1021.99 1022.00 1022.01 1021.79
1027.00 1028.07 1029.11 1029.56 1029.11 1028.45 1025.78 1025.31 1025.44 1026.30 1027.82 1028.75 1029.16 1029.15 1029.12 1029.00 1028.61 1027.62 1027.35 1026.99 1026.32 1025.49 1024.45 1023.64 1023.00 1022.88 1023.30 1023.99 1024.11 1024.58 1024.58 1024.69 1024.51 1024.22 1024.61 1024.39 1023.91 1023.47 1023.16 1022.68 1022.47 1022.61 1022.70 1022.72
1026.47 1027.96 1029.77 1030.44 1030.24 1028.04 1026.03 1025.66 1025.70 1026.14 1028.36 1029.27 1029.68 1029.95 1029.76 1029.14 1028.52 1027.86 1027.79 1027.21 1026.41 1025.66 1024.65 1024.14 1023.14 1023.77 1024.57 1025.03 1025.24 1025.53 1025.46 1025.50 1025.28 1025.45 1025.57 1025.24 1024.72 1024.28 1023.97 1023.69 1023.45 1023.46 1023.51 1023.49
1026.84 1027.76 1029.35 1030.66 1030.74 1028.69 1026.08 1025.81 1025.44 1025.95 1028.37 1029.68 1029.88 1030.25 1030.13 1029.23 1028.35 1027.98 1027.22 1026.90 1026.35 1026.06 1025.48 1025.40 1025.56 1025.81 1026.03 1026.36 1026.52 1026.46 1026.60 1026.21 1026.24 1026.67 1026.65 1026.28 1025.87 1025.56 1025.28 1025.02 1024.66 1024.68 1024.58 1024.52
1027.27 1028.29 1029.03 1029.68 1029.60 1027.84 1026.22 1025.93 1025.56 1027.07 1029.25 1029.50 1030.37 1030.88 1030.44 1029.79 1029.84 1028.83 1027.92 1027.68 1027.40 1027.50 1026.96 1026.88 1026.72 1027.09 1027.49 1027.70 1027.65 1027.66 1027.67 1027.39 1027.74 1027.68 1027.52 1027.18 1026.88 1026.61 1026.34 1026.13 1025.96 1025.83 1025.62 1025.39
1026.43 1027.26 1028.25 1028.97 1029.17 1027.77 1026.51 1026.66 1027.01 1028.33 1028.74 1029.86 1030.43 1030.41 1030.00 1029.49 1029.09 1028.73 1028.31 1028.50 1028.56 1028.57 1028.42 1028.34 1028.05 1028.37 1028.69 1028.75 1028.57 1028.53 1028.43 1028.73 1028.70 1028.56 1028.35 1028.13 1027.91 1027.50 1027.28 1027.06 1026.97 1026.74 1026.51 1026.12
1025.70 1025.39 1025.73 1026.54 1027.06 1027.19 1027.16 1027.42 1027.98 1028.52 1029.20 1030.00 1030.01 1029.83 1029.43 1029.12 1029.01 1028.81 1029.04 1029.28 1029.70 1029.69 1029.97 1029.97 1029.63 1029.70 1029.74 1029.69 1029.65 1029.58 1029.62 1029.60 1029.47 1029.38 1029.25 1029.04 1028.68 1028.36 1028.22 1027.93 1027.74 1027.45 1027.20 1026.80
1025.21 1025.06 1025.36 1026.17 1027.41 1027.58 1028.25 1028.54 1028.88 1029.10 1029.42 1029.73 1029.60 1029.50 1029.11 1029.20 1028.89 1029.02 1029.67 1030.00 1030.38 1030.46 1030.82 1031.13 1030.87 1030.66 1030.67 1030.62 1030.45 1030.42 1030.26 1030.17 1030.10 1030.11 1029.87 1029.64 1029.29 1029.20 1029.03 1028.78 1028.56 1028.33 1028.05 1027.75
1025.72 1025.52 1025.89 1026.46 1027.32 1028.47 1029.10 1029.14 1028.99 1029.30 1029.26 1029.37 1029.38 1029.67 1029.35 1029.48 1029.68 1029.82 1030.36 1030.80 1031.33 1031.58 1031.83 1032.12 1032.09 1031.86 1031.88 1031.72 1031.43 1031.06 1030.82 1030.59 1030.54 1030.44 1030.26 1030.03 1029.89 1029.77 1029.70 1029.47 1029.31 1029.22 1029.11 1028.69
1025.58 1025.43 1025.96 1026.34 1026.65 1027.53 1028.57 1028.85 1029.01 1029.23 1029.60 1029.63 1029.67 1029.63 1029.95 1030.05 1030.29 1030.70 1031.27 1031.78 1032.24 1032.74 1032.87 1033.06 1033.25 1032.97 1032.80 1032.52 1032.22 1031.83 1031.53 1031.23 1031.06 1031.04 1030.93 1030.73 1030.53 1030.38 1030.19 1030.04 1030.02 1029.78 1029.95 1029.60
Wind_Speed
4 6 1 4 1 2 2 4 3 5 4 8 7 11 16 15 10 16 14 12 9 10 7 9 10 9 10 10 14 14 12 9 9 8 10 11 12 11 11 9 10 11 14 14
7 5 3 7 8 8 8 6 6 6 6 5 10 13 10 10 9 12 12 11 11 11 9 8 8 9 9 8 8 10 8 8 7 7 7 4 7 6 8 11 13 13 13 15
4 2 7 7 8 8 4 5 4 3 9 4 6 10 8 8 15 16 14 11 9 8 8 9 9 7 5 7 7 9 8 7 8 10 8 8 5 6 8 12 12 16 15 14
1 2 6 6 6 5 4 6 6 6 6 2 4 3 8 9 14 13 9 11 11 10 8 6 6 8 8 8 9 9 8 7 9 8 9 10 8 11 10 10 11 12 16 16
5 5 6 7 4 3 5 6 3 3 4 3 8 6 9 11 11 7 8 10 10 11 8 10 9 8 6 8 7 7 8 6 6 6 6 7 14 11 11 10 15 14 12 13
4 3 4 2 3 4 6 5 6 4 4 3 2 5 7 4 4 6 12 9 9 10 8 8 7 7 7 8 9 9 8 8 9 9 12 12 14 12 14 12 11 10 10 11
7 5 4 5 4 7 11 7 6 7 6 4 7 6 5 2 8 11 9 10 10 10 9 10 10 8 6 7 7 8 11 12 12 12 14 14 12 12 12 11 9 12 11 10
3 4 7 7 3 1 3 3 5 2 3 5 9 6 6 6 7 5 4 3 6 7 7 8 6 5 4 6 8 9 9 10 11 12 12 11 11 7 8 9 8 8 9 10
3 3 5 5 2 3 5 4 3 2 3 3 3 4 1 12 10 8 11 11 6 6 7 5 1 4 5 7 6 6 7 7 9 11 10 11 10 11 9 11 11 9 11 12
3 3 3 5 4 6 2 2 5 4 2 5 3 2 5 14 16 20 20 19 19 16 13 5 4 3 5 5 5 6 7 8 6 12 11 9 9 10 11 11 14 13 13 14
3 3 6 4 2 1 4 5 4 3 4 4 5 5 3 14 17 15 17 18 21 22 14 9 8 7 5 6 6 7 8 10 9 11 11 10 10 12 12 13 13 12 13 14
3 3 3 5 7 1 7 4 4 5 5 1 4 9 7 16 13 14 14 16 18 17 17 16 14 7 7 7 8 9 10 13 12 11 10 11 12 13 14 13 14 15 14 11
1 2 3 4 7 6 6 4 3 2 2 7 5 8 11 15 13 12 14 15 13 14 9 8 10 5 4 6 7 8 10 12 9 11 11 11 12 13 14 13 15 14 14 14
5 2 4 6 2 1 5 8 5 1 3 3 7 14 8 14 14 15 16 17 17 18 7 7 12 10 9 12 9 10 12 10 11 11 11 11 13 12 10 11 15 15 14 15
4 3 1 4 5 3 5 7 4 6 9 6 4 5 6 12 14 17 19 21 21 19 17 9 7 9 7 8 8 11 12 10 11 11 11 11 11 11 13 15 13 13 15 14
1 2 2 4 4 4 5 7 8 5 1 4 7 5 12 13 15 19 20 21 19 18 17 17 16 20 6 8 10 9 10 10 10 12 11 11 11 10 11 12 13 13 11 12
4 3 3 4 6 7 4 4 1 2 9 4 4 7 12 17 17 18 20 16 22 22 23 21 18 11 5 9 8 9 9 10 11 11 11 10 9 9 10 9 10 11 12 12
5 5 3 3 4 3 4 2 6 9 7 6 6 11 13 15 15 15 13 18 21 20 18 16 13 5 6 8 10 9 9 10 10 12 11 10 9 9 9 10 10 9 11 13
5 5 2 4 2 8 1 3 2 4 3 6 6 9 13 16 12 2 13 18 17 19 15 11 12 12 11 9 10 10 10 10 11 10 8 9 10 10 11 12 11 9 7 9
5 5 5 3 3 6 4 4 5 4 4 3 7 11 16 18 11 9 20 21 18 15 13 13 14 11 10 11 10 10 9 10 12 11 10 9 10 11 12 12 10 11 9 11
4 2 6 3 3 8 3 4 4 3 2 4 3 7 11 8 5 14 16 15 14 11 12 11 11 11 12 11 9 10 9 11 9 9 9 10 10 11 11 11 11 10 10 9
9 7 5 3 2 9 1 2 2 2 3 2 4 5 8 7 8 11 10 12 12 12 13 12 12 12 11 8 7 8 10 8 7 8 10 11 11 11 10 12 10 11 10 10
4 7 7 9 7 2 4 5 5 5 4 4 3 5 8 8 5 7 9 11 11 11 11 11 11 11 9 8 6 7 6 5 6 8 7 8 10 10 10 11 11 9 10 10
1 3 3 3 5 6 6 5 5 4 5 2 3 6 7 5 8 10 9 9 9 9 9 8 8 9 8 7 6 4 2 3 4 4 5 6 8 9 9 7 9 9 9 9
4 2 4 2 6 7 4 4 6 4 6 5 6 5 8 7 10 9 9 10 8 9 9 7 8 8 8 7 7 7 5 5 7 8 7 6 4 6 5 6 8 10 11 12
4 6 5 6 5 4 4 4 4 6 5 5 4 5 7 6 9 10 10 9 9 8 7 7 6 6 6 6 6 7 7 8 7 8 7 7 7 7 7 6 8 18 19 22
Wind_Direction
341 75 257 246 291 27 2 40 347 296 341 26 330 316 312 319 60 78 82 79 71 64 57 61 55 51 55 39 45 39 39 21 20 15 13 1 350 339 340 349 349 342 342 329
22 64 297 72 33 46 60 51 344 294 321 22 324 307 338 38 54 77 83 72 69 67 55 52 41 30 35 33 39 35 40 36 19 10 3 2 338 334 322 341 344 352 344 343
122 269 61 74 36 33 357 50 337 265 333 35 11 342 46 46 64 62 55 70 63 63 41 26 35 23 27 35 31 35 28 31 25 13 5 354 340 338 342 348 347 344 346 341
50 337 87 67 52 36 345 339 314 327 7 318 54 278 16 32 55 51 46 45 39 31 31 29 6 18 21 13 26 19 17 33 30 14 13 5 353 346 338 337 336 339 345 339
266 332 61 68 34 3 256 317 281 232 190 57 351 81 313 57 47 26 37 47 26 21 10 358 1 353 23 18 8 3 23 33 11 10 13 2 2 351 344 345 337 339 342 344
249 2 42 83 123 56 286 331 6 44 102 68 305 126 315 8 6 14 38 18 7 5 357 350 338 343 20 10 15 21 17 12 3 7 13 9 358 349 345 350 346 341 342 340
352 21 330 47 38 354 31 33 358 5 11 219 307 70 174 134 53 49 21 2 354 357 3 356 356 20 42 30 24 27 22 18 13 11 9 358 357 359 347 347 350 347 340 346
27 316 360 335 98 286 336 99 127 280 276 258 299 138 188 116 107 63 50 319 342 355 327 331 343 104 102 69 43 37 26 17 10 6 0 358 12 354 353 352 358 353 345 336
30 201 314 45 27 91 315 46 181 188 321 9 260 34 230 6 32 13 0 9 347 289 287 292 115 128 107 80 66 49 27 16 18 10 360 16 9 4 5 0 7 357 0 339
320 314 332 298 25 356 102 255 20 8 321 295 262 289 254 358 346 15 20 6 348 328 329 308 330 32 74 95 78 48 29 19 7 19 14 11 15 12 11 11 15 1 13 348
31 88 295 0 64 342 6 7 22 107 135 195 309 240 78 12 36 23 9 4 359 347 341 5 342 2 68 52 44 33 31 20 24 20 18 21 16 22 18 20 14 360 7 352
338 123 290 271 276 333 101 98 69 96 297 245 176 274 76 56 37 26 13 6 8 16 8 359 354 13 45 20 33 32 27 26 28 37 37 26 23 30 33 24 23 8 13 354
63 39 351 358 351 13 35 56 108 226 130 202 161 259 33 30 20 9 360 354 347 349 356 346 4 16 51 37 19 36 30 30 33 37 38 37 34 34 36 30 27 14 11 15
93 135 177 201 122 338 308 329 353 159 241 229 225 285 22 2 353 350 345 336 334 327 300 356 11 15 39 42 354 24 24 30 35 45 47 44 39 40 42 42 36 23 16 15
109 161 272 287 307 302 268 282 286 252 243 226 290 291 14 354 345 338 333 330 331 337 357 3 8 355 25 30 18 16 25 33 48 51 50 49 45 37 38 43 43 34 26 19
137 243 59 297 332 335 286 283 252 254 22 284 321 314 6 342 342 337 331 330 332 338 333 333 333 332 41 46 42 18 28 44 51 58 50 48 48 46 47 46 39 32 33 29
132 126 85 266 339 338 317 209 33 75 49 355 2 317 324 334 346 332 320 347 334 324 320 319 323 327 32 47 51 50 46 52 54 55 51 50 47 39 33 33 49 44 36 31
137 113 118 243 21 352 223 347 125 103 83 48 356 331 331 326 328 311 360 335 319 314 312 315 319 334 91 71 70 60 60 56 50 51 41 37 32 30 31 35 41 43 37 33
144 123 123 132 219 292 331 109 166 193 126 46 345 327 323 332 316 341 341 330 320 318 320 340 331 74 64 62 65 66 62 62 59 53 28 15 24 36 35 40 38 44 41 36
134 114 129 92 152 230 200 195 251 164 212 33 13 353 330 337 351 330 337 335 339 354 21 52 46 56 58 57 59 62 52 49 45 36 32 29 37 38 38 33 32 39 38 34
153 186 194 163 223 282 284 302 302 119 234 65 29 313 327 341 275 299 337 6 56 37 48 54 62 58 56 55 55 58 48 47 38 41 38 37 36 43 37 39 35 30 31 38
174 166 189 147 214 270 22 20 156 162 68 93 240 313 332 304 302 348 24 30 39 38 47 48 61 61 55 47 55 52 50 39 33 52 55 49 45 46 42 45 41 39 34 34
209 189 178 175 210 136 11 122 102 124 161 225 258 320 331 322 323 41 52 52 52 50 50 51 60 62 48 46 34 38 24 48 58 57 42 43 49 48 45 45 42 38 31 31
98 3 138 101 158 137 145 109 144 161 167 100 20 8 3 13 60 88 75 68 64 65 64 56 59 61 55 30 15 12 14 43 48 44 35 46 56 54 48 45 47 39 34 27
214 40 150 303 107 124 147 161 156 126 89 67 46 53 52 70 67 83 84 82 76 70 63 44 41 46 37 19 16 19 30 49 56 49 42 39 46 55 48 51 56 49 35 39
193 193 168 218 179 154 154 151 111 81 87 77 79 76 56 82 96 96 88 82 82 71 64 59 37 35 13 19 22 20 33 47 54 55 44 41 43 39 42 42 49 48 52 42